Wetbulb
56.03 54.73 54.94 56.10 56.11 56.67 58.96 59.33 58.93 60.41 59.79 58.98 58.67 57.28 58.70 59.12 59.54 60.40 58.06 60.45 59.89 61.46 62.02 56.29 54.75 52.56 53.26 51.12 51.00 48.36 43.29 40.75 43.83 46.71 47.72 50.47 50.91 52.09 53.12 52.46 52.16 53.56 55.35 58.22 62.07
55.27 54.44 55.01 55.53 55.57 56.53 57.92 58.87 60.23 60.22 59.70 58.64 58.25 58.87 58.98 56.83 56.35 56.15 61.09 61.85 62.29 61.82 55.31 52.69 50.32 50.52 48.22 48.79 48.93 43.94 40.25 43.36 48.57 47.57 48.36 50.87 52.28 52.14 51.07 50.73 52.31 54.89 58.03 61.92 61.80
54.67 54.05 54.26 54.89 55.37 55.47 55.77 58.66 59.08 59.88 59.59 59.40 58.98 58.62 58.11 57.71 54.46 55.60 60.47 61.46 62.20 61.35 57.39 54.88 51.48 48.53 46.94 48.04 45.83 44.02 41.25 46.43 48.43 50.41 50.55 51.28 50.42 51.52 50.48 47.83 52.66 54.84 57.94 60.06 59.81
54.53 53.76 53.72 55.36 54.65 54.89 55.33 56.85 58.69 59.43 60.08 59.98 59.21 58.29 58.06 54.73 46.59 55.98 60.65 61.67 60.64 59.40 56.73 50.86 49.11 45.96 44.34 44.62 47.51 42.42 46.95 48.34 49.50 49.66 50.99 50.52 51.73 50.28 49.29 51.62 54.81 58.88 60.13 59.75 59.41
53.92 54.02 53.30 53.51 54.75 54.50 55.27 55.51 58.11 59.02 60.38 59.63 57.55 57.41 54.44 48.34 47.49 57.25 60.25 60.02 57.76 56.36 52.55 48.99 45.66 45.67 43.84 44.31 46.04 43.29 46.21 48.15 48.43 48.91 48.44 50.15 48.23 48.92 48.23 50.29 56.33 59.11 59.74 59.41 59.61
54.03 53.91 53.36 52.96 52.97 55.00 55.01 55.70 56.59 58.80 59.77 58.47 57.90 57.18 51.12 43.29 55.07 54.52 55.94 57.32 56.08 55.04 51.23 47.84 46.31 46.29 44.36 44.11 42.41 46.63 47.22 46.79 47.51 46.37 47.06 47.80 45.81 47.76 49.17 51.02 56.22 57.55 57.40 58.21 58.90
52.70 53.37 53.56 52.86 52.66 54.25 54.63 55.02 56.90 58.28 59.64 58.48 58.08 55.06 49.30 47.34 55.28 55.29 54.87 55.48 57.62 54.55 50.95 50.08 49.24 44.85 45.24 43.95 46.40 47.12 44.02 43.36 44.32 45.24 44.17 45.41 43.72 44.64 46.95 51.24 54.45 55.72 55.83 56.92 58.50
52.77 52.78 53.25 52.72 52.60 53.87 54.48 55.45 56.67 58.42 59.46 58.93 57.74 53.38 46.99 55.38 56.02 54.56 54.82 52.39 56.82 56.47 54.13 52.31 51.55 48.33 46.18 44.31 43.59 40.17 39.40 37.36 41.82 45.58 45.30 41.50 36.85 42.58 45.82 48.59 49.50 50.83 52.58 54.40 56.16
52.88 53.35 53.02 52.65 52.98 53.68 54.40 54.53 56.00 58.11 58.99 57.93 52.78 50.25 44.87 54.74 51.87 54.70 53.78 50.01 51.85 54.27 53.87 53.92 50.02 45.36 44.49 38.20 35.09 35.55 31.84 34.58 39.08 44.08 43.18 39.38 35.54 42.90 44.16 45.59 45.84 46.39 48.07 50.40 53.33
52.80 53.32 52.89 52.83 52.94 53.38 54.74 54.48 56.10 54.97 56.89 53.67 51.79 45.44 47.33 46.96 51.77 52.80 53.01 51.57 49.82 50.93 49.21 48.95 45.08 40.72 37.91 34.68 31.58 31.96 31.66 34.81 36.61 40.74 41.59 38.93 37.59 39.77 42.02 44.07 44.25 44.42 45.02 45.95 48.57
52.83 53.14 52.78 52.89 52.80 52.87 53.60 52.77 47.35 46.72 48.30 45.29 44.39 43.66 44.84 49.35 52.74 50.95 51.86 50.84 51.39 47.56 39.99 44.30 39.16 33.09 36.16 37.84 38.15 37.34 34.42 33.30 34.70 39.59 40.00 38.07 37.20 40.33 41.97 40.09 40.90 41.79 43.47 44.39 47.52
52.55 52.86 52.64 52.64 52.77 52.84 52.03 45.20 47.24 48.41 40.92 46.68 46.39 45.89 48.05 49.59 45.38 48.16 52.70 47.07 45.74 39.23 41.63 38.27 37.13 40.00 41.90 41.28 38.84 36.79 33.59 31.62 35.81 39.00 36.81 35.53 37.41 39.60 40.26 41.45 41.71 41.86 42.10 43.40 47.05
52.45 52.85 52.44 52.41 52.95 51.56 48.74 47.35 52.36 50.46 40.51 42.11 45.56 44.22 44.54 47.02 43.35 45.31 49.65 47.68 43.26 39.15 38.73 35.72 38.43 41.61 40.40 37.42 36.71 34.08 33.51 32.03 33.67 36.49 35.55 32.17 32.81 35.20 38.77 39.71 40.72 42.39 42.19 42.44 46.89
52.51 52.47 52.72 52.45 47.93 49.38 47.12 51.66 52.10 50.37 34.81 36.50 40.32 44.58 45.13 45.39 40.31 48.60 50.62 47.02 43.20 39.34 38.80 38.46 39.92 40.03 38.55 37.05 37.41 33.55 37.28 37.18 35.50 31.69 28.36 32.14 27.11 30.79 34.43 37.27 38.47 40.88 41.09 41.66 45.17
52.62 52.12 52.70 52.33 48.26 46.15 49.30 51.75 50.72 47.54 24.77 37.53 39.67 49.45 46.02 41.68 41.34 42.36 50.71 47.26 40.09 40.23 38.84 34.69 36.11 36.90 35.56 37.00 38.71 35.54 38.31 35.88 33.84 31.60 27.94 27.93 25.95 29.60 31.65 34.52 37.25 38.10 39.17 39.16 40.47
52.23 52.12 52.45 48.95 48.79 50.86 51.21 49.92 46.88 31.92 23.79 33.76 40.67 40.42 38.59 41.05 41.23 42.82 44.72 47.25 45.15 40.33 39.80 37.86 41.23 39.27 37.39 38.24 38.64 38.47 36.26 34.32 32.91 30.22 21.73 27.82 28.04 25.74 30.34 34.02 34.13 36.27 38.02 39.44 40.35
51.72 52.12 49.98 50.17 44.74 50.73 49.97 44.86 30.73 25.50 34.40 33.16 36.21 38.87 38.21 37.66 38.59 38.40 38.44 38.39 34.99 31.17 31.73 35.37 35.87 39.27 39.97 36.76 38.65 35.55 31.94 19.32 18.78 17.01 21.02 26.86 24.68 29.34 31.43 35.11 36.02 37.39 37.65 38.14 39.36
52.13 50.64 49.75 49.39 50.92 49.84 45.77 35.20 24.28 30.13 31.87 37.47 38.97 38.13 36.12 38.32 37.82 36.48 36.04 35.12 38.20 35.34 31.54 27.64 26.31 36.17 39.14 37.00 33.91 32.02 31.87 22.78 19.11 18.37 21.58 27.11 23.93 29.68 33.65 35.19 36.47 38.28 37.99 38.38 38.14
50.80 44.21 45.68 49.40 50.28 47.89 37.99 27.39 26.95 31.95 35.66 36.65 37.34 34.27 34.33 37.85 37.86 35.24 35.25 34.54 37.03 36.47 30.54 27.85 29.39 37.56 38.40 38.53 37.87 33.26 30.00 32.89 25.17 18.25 20.46 23.73 27.29 32.82 34.12 33.57 34.55 36.74 37.59 37.14 37.38
43.81 40.76 43.22 49.63 48.99 42.17 32.90 28.74 30.91 36.43 37.30 36.61 32.23 35.70 31.90 34.73 35.23 34.29 33.91 37.00 36.30 38.07 37.93 32.60 28.13 34.88 36.70 38.48 38.43 34.45 35.66 26.58 22.53 13.08 14.14 19.94 22.58 25.30 30.21 32.43 33.98 34.49 35.80 36.60 37.42
41.02 33.33 43.01 48.70 44.10 35.41 25.51 27.75 32.75 38.69 38.22 33.40 31.98 32.69 35.49 35.07 35.20 33.81 33.05 35.84 38.72 37.17 36.90 35.52 32.90 31.23 35.49 32.82 31.11 31.82 28.15 28.71 28.49 23.55 18.84 16.59 22.53 29.29 31.03 33.34 33.84 34.70 36.38 36.52 37.31
35.24 26.23 43.58 45.67 30.88 31.95 30.03 32.50 37.69 36.32 38.24 34.64 34.43 34.24 36.15 36.18 34.97 33.48 32.36 34.72 41.13 38.18 33.48 36.78 33.53 29.31 29.57 35.27 36.43 34.81 31.57 31.44 24.20 21.06 22.36 22.57 22.95 33.17 33.78 33.37 35.46 35.79 37.32 37.32 37.84
33.20 32.13 42.52 40.88 22.13 26.20 30.21 33.49 37.31 35.76 36.07 35.46 34.05 35.89 36.80 33.91 32.60 34.94 35.36 39.87 39.50 38.20 35.04 36.98 30.60 26.11 25.27 29.42 33.04 31.99 32.77 31.46 29.34 27.64 24.23 20.48 22.65 34.32 33.89 33.70 36.23 36.36 36.72 37.95 37.97
29.37 21.90 29.08 32.89 33.19 25.96 26.37 28.04 30.27 37.74 36.01 37.29 35.95 37.46 34.81 33.09 35.08 34.56 35.19 38.70 39.76 39.13 41.07 39.65 31.72 27.08 23.97 26.08 31.80 30.52 32.71 32.59 30.68 21.09 24.53 23.98 24.33 30.14 33.04 34.16 34.65 36.55 38.07 37.86 38.24
29.87 25.13 22.26 26.40 25.17 30.32 30.16 30.24 30.60 29.68 35.94 36.64 35.24 35.34 33.25 30.39 30.79 33.34 36.44 37.34 39.11 41.05 38.46 35.75 26.43 29.35 29.16 29.67 31.22 30.49 31.92 32.80 29.94 30.11 26.48 26.80 27.76 32.19 33.85 34.88 35.46 36.68 38.13 37.71 37.78
28.66 27.86 31.37 25.68 28.56 27.65 29.02 25.96 29.75 31.96 33.54 31.99 31.77 34.78 35.95 32.12 32.19 30.94 34.22 37.44 35.15 38.07 36.36 36.33 26.21 28.97 23.11 29.86 30.40 28.74 31.08 32.93 32.99 32.33 30.77 29.90 28.41 33.95 35.48 34.90 36.00 37.38 37.64 38.10 38.33
37.33 34.34 29.82 24.22 23.45 23.22 21.67 28.84 30.95 34.25 35.11 35.27 34.82 34.63 33.67 36.09 39.34 39.86 39.55 39.75 38.85 36.67 35.88 33.88 28.04 21.10 16.89 27.20 27.50 21.35 26.61 30.50 31.67 33.78 33.52 29.44 34.96 37.21 35.35 36.67 36.45 36.31 38.11 39.08 39.87
MSLP
1014.82 1014.62 1014.30 1014.20 1013.95 1013.72 1012.56 1012.43 1012.47 1012.53 1012.79 1013.21 1013.31 1013.39 1013.52 1013.70 1013.67 1014.12 1014.46 1014.09 1014.05 1013.86 1013.81 1013.61 1012.64 1012.26 1012.43 1012.11 1011.98 1012.38 1013.13 1013.45 1013.45 1013.36 1013.19 1013.46 1013.60 1013.89 1013.89 1014.56 1015.26 1015.67 1015.99 1016.40 1017.42
1014.59 1014.32 1013.98 1013.77 1013.50 1013.31 1012.31 1011.94 1011.82 1012.10 1012.66 1013.25 1013.69 1013.24 1012.96 1014.45 1013.56 1013.88 1013.63 1014.10 1014.33 1014.33 1014.13 1014.15 1012.43 1012.46 1012.54 1012.37 1012.32 1012.71 1013.33 1013.09 1013.06 1013.10 1013.22 1013.32 1013.16 1013.60 1014.26 1014.90 1015.87 1016.01 1016.10 1016.64 1017.43
1014.43 1014.19 1013.70 1013.46 1013.26 1013.00 1012.57 1011.68 1011.82 1012.10 1011.74 1012.69 1013.92 1013.54 1013.30 1013.89 1014.33 1013.42 1014.04 1014.48 1014.64 1014.61 1015.29 1013.82 1013.26 1013.05 1012.79 1012.52 1012.47 1012.64 1012.81 1012.92 1013.38 1013.28 1013.37 1013.39 1013.68 1013.77 1014.35 1015.18 1015.23 1015.84 1016.50 1016.99 1017.61
1014.34 1013.98 1013.74 1013.24 1013.12 1012.90 1012.44 1012.10 1011.95 1011.68 1011.46 1012.44 1013.40 1013.62 1013.71 1014.03 1014.82 1014.32 1014.37 1014.78 1015.42 1015.38 1014.74 1013.38 1013.23 1013.04 1012.71 1012.52 1012.33 1012.82 1013.13 1013.11 1013.53 1013.42 1013.43 1013.52 1013.65 1014.09 1014.33 1014.39 1014.52 1015.00 1015.52 1016.63 1017.37
1014.10 1013.70 1013.62 1013.23 1012.27 1012.47 1011.94 1011.99 1011.66 1011.61 1011.59 1011.53 1012.71 1013.28 1013.29 1014.33 1015.10 1014.05 1014.34 1014.73 1015.34 1015.31 1013.97 1013.39 1013.21 1012.69 1012.58 1012.58 1012.77 1013.20 1013.71 1013.62 1013.71 1013.79 1013.73 1013.59 1014.10 1014.31 1014.40 1014.43 1014.95 1015.71 1016.17 1016.47 1017.02
1013.72 1013.44 1012.96 1012.34 1012.24 1012.05 1011.82 1011.83 1011.56 1011.44 1011.44 1011.52 1011.77 1012.22 1014.51 1015.50 1014.55 1014.21 1014.28 1014.38 1014.75 1014.50 1013.66 1013.11 1012.79 1012.56 1012.65 1012.88 1013.14 1013.52 1014.06 1014.19 1014.04 1014.36 1014.27 1014.10 1014.54 1014.39 1014.81 1014.77 1015.39 1015.98 1016.32 1016.70 1016.88
1013.41 1013.05 1012.79 1012.37 1012.10 1011.82 1011.65 1011.21 1010.83 1010.53 1010.57 1011.57 1011.63 1012.39 1015.22 1014.68 1014.40 1014.35 1014.58 1014.37 1013.97 1013.81 1013.21 1012.83 1012.84 1012.81 1012.79 1013.29 1013.60 1014.21 1014.94 1015.01 1014.86 1014.84 1014.92 1014.67 1015.18 1015.08 1015.05 1015.43 1015.89 1016.30 1016.52 1016.78 1016.90
1013.28 1013.00 1012.50 1012.16 1011.83 1011.78 1011.58 1011.02 1010.56 1010.32 1010.61 1011.52 1012.05 1013.16 1013.94 1014.27 1014.29 1014.61 1014.77 1013.97 1013.28 1013.58 1013.49 1013.06 1012.95 1012.76 1013.10 1013.46 1014.08 1014.85 1015.48 1015.63 1015.42 1015.33 1015.29 1015.09 1015.45 1015.25 1015.44 1015.73 1016.35 1016.60 1016.89 1017.00 1017.04
1012.74 1012.80 1012.45 1012.00 1011.85 1011.65 1011.46 1011.11 1010.50 1010.53 1010.75 1011.66 1012.45 1013.44 1014.00 1014.27 1014.29 1013.92 1014.26 1014.01 1013.33 1013.56 1014.35 1013.43 1012.69 1013.28 1013.74 1014.14 1015.33 1015.86 1016.02 1016.02 1015.98 1015.71 1015.57 1015.65 1015.81 1015.50 1015.70 1016.12 1016.69 1016.80 1017.04 1017.11 1017.04
1012.25 1012.29 1012.38 1011.97 1011.71 1011.61 1011.28 1010.91 1010.38 1010.64 1011.11 1012.09 1012.74 1013.47 1014.12 1013.11 1013.35 1013.94 1013.78 1013.56 1013.31 1013.26 1014.69 1013.66 1013.54 1013.96 1014.40 1014.64 1015.19 1015.93 1016.23 1016.25 1016.03 1016.15 1016.12 1016.21 1016.15 1016.09 1016.12 1016.42 1016.73 1016.88 1016.99 1017.15 1017.04
1012.20 1012.17 1012.19 1012.18 1011.82 1011.76 1011.49 1010.84 1011.10 1011.59 1011.13 1011.22 1011.40 1012.08 1012.38 1012.42 1013.71 1013.88 1014.10 1013.50 1013.20 1013.48 1014.12 1014.71 1014.39 1013.93 1014.24 1014.38 1014.60 1015.27 1015.93 1016.42 1016.65 1016.61 1016.60 1016.77 1016.77 1016.50 1016.41 1016.54 1016.95 1017.06 1016.84 1017.02 1017.10
1012.03 1012.13 1012.09 1011.87 1011.47 1011.60 1011.48 1011.55 1010.99 1010.99 1011.30 1011.31 1011.48 1011.71 1012.14 1012.27 1013.75 1014.33 1013.68 1013.90 1013.78 1014.01 1014.02 1014.98 1014.21 1014.05 1014.42 1014.75 1014.83 1015.45 1016.18 1016.94 1017.38 1017.22 1017.20 1017.35 1017.09 1016.67 1016.65 1016.40 1016.38 1016.66 1016.82 1017.08 1017.49
1011.56 1011.78 1011.70 1011.48 1011.30 1011.54 1011.40 1011.34 1011.02 1010.72 1011.61 1012.34 1012.28 1012.17 1012.19 1012.89 1013.45 1014.01 1013.62 1014.54 1014.53 1014.46 1014.46 1014.50 1014.37 1014.15 1014.56 1015.13 1015.23 1015.58 1016.21 1017.32 1017.57 1017.99 1018.09 1018.13 1017.83 1016.90 1016.12 1016.07 1016.02 1015.96 1016.18 1016.81 1017.30
1011.15 1011.40 1011.45 1011.61 1012.02 1011.73 1011.67 1011.23 1010.94 1011.08 1012.01 1013.23 1012.73 1012.33 1012.85 1013.17 1013.75 1013.82 1013.93 1014.87 1015.29 1015.09 1014.92 1014.88 1014.44 1014.43 1014.88 1015.17 1015.16 1016.02 1016.46 1017.35 1018.02 1018.54 1019.16 1018.96 1018.41 1017.24 1016.25 1015.98 1015.81 1015.70 1016.11 1016.62 1017.34
1011.02 1011.37 1011.49 1011.74 1012.13 1012.06 1011.64 1011.45 1011.16 1010.92 1011.99 1013.26 1012.87 1012.44 1012.77 1013.20 1013.99 1014.10 1014.56 1015.05 1015.09 1015.13 1015.29 1015.79 1015.39 1015.28 1015.14 1014.87 1015.23 1016.52 1016.88 1017.95 1018.99 1019.59 1019.89 1019.92 1019.68 1017.24 1016.91 1016.45 1015.70 1015.57 1016.10 1016.80 1017.25
1011.03 1011.32 1011.66 1011.95 1011.95 1011.65 1011.51 1011.83 1011.80 1012.19 1012.45 1012.83 1012.53 1012.62 1013.37 1013.78 1014.17 1014.49 1015.05 1015.43 1015.55 1015.86 1016.10 1016.76 1016.29 1015.99 1015.43 1015.49 1015.63 1016.87 1017.78 1019.20 1020.31 1021.00 1021.08 1020.05 1019.79 1017.90 1017.01 1016.03 1015.84 1016.03 1016.82 1017.26 1017.72
1011.08 1011.36 1011.67 1012.07 1012.46 1012.15 1012.15 1012.30 1012.73 1012.26 1012.55 1012.57 1012.36 1012.72 1013.45 1013.83 1014.29 1014.69 1014.98 1015.39 1015.57 1016.42 1017.12 1017.89 1017.12 1016.35 1015.94 1016.19 1016.83 1016.89 1018.18 1020.83 1022.31 1022.55 1021.55 1020.75 1020.35 1017.32 1016.39 1016.12 1015.97 1016.27 1017.39 1017.88 1018.25
1011.45 1011.66 1012.27 1012.37 1012.55 1012.56 1012.84 1013.38 1013.27 1012.74 1012.58 1012.42 1012.34 1012.98 1013.38 1013.74 1014.41 1014.96 1015.30 1015.39 1015.44 1015.61 1016.41 1017.46 1018.34 1016.99 1016.52 1016.20 1016.53 1017.30 1017.80 1019.77 1021.68 1022.81 1022.08 1021.42 1019.65 1016.91 1016.52 1016.34 1016.27 1016.79 1017.61 1018.31 1018.82
1011.87 1012.53 1013.02 1013.20 1012.95 1013.01 1013.62 1013.94 1013.89 1013.18 1012.92 1012.63 1012.87 1013.12 1013.20 1013.62 1014.05 1014.59 1015.11 1015.30 1014.68 1014.75 1015.45 1016.61 1017.14 1016.95 1016.75 1016.53 1016.66 1017.58 1018.20 1019.26 1021.08 1022.97 1022.65 1020.73 1018.92 1016.97 1016.82 1017.13 1017.36 1017.56 1018.04 1018.69 1019.20
1012.53 1013.40 1013.94 1013.49 1013.33 1013.53 1014.37 1014.49 1014.19 1013.71 1013.34 1013.05 1012.95 1013.11 1013.03 1013.45 1013.88 1014.03 1014.67 1014.48 1014.12 1014.06 1014.36 1015.37 1016.68 1017.10 1017.13 1017.04 1017.06 1017.05 1017.90 1019.50 1021.03 1022.62 1022.54 1020.56 1019.29 1017.32 1017.18 1017.22 1017.62 1018.07 1018.31 1018.80 1019.29
1013.20 1014.35 1014.51 1013.75 1013.81 1014.39 1015.30 1015.15 1014.54 1014.21 1013.86 1013.78 1013.58 1013.33 1013.01 1013.05 1013.16 1013.65 1014.01 1013.48 1013.86 1013.98 1014.37 1015.00 1015.71 1017.68 1017.54 1017.50 1017.60 1017.74 1017.98 1019.03 1020.05 1020.99 1020.99 1020.48 1018.34 1016.20 1016.12 1016.50 1016.99 1017.41 1018.02 1018.59 1019.11
1014.41 1015.38 1014.82 1014.23 1015.12 1015.94 1016.02 1015.83 1015.30 1014.78 1014.33 1014.31 1014.13 1013.81 1013.25 1013.51 1013.42 1013.75 1013.40 1013.05 1013.06 1013.35 1014.39 1014.91 1015.99 1017.38 1017.82 1017.79 1017.85 1017.77 1017.89 1018.47 1019.61 1020.59 1020.59 1020.04 1017.56 1015.97 1015.62 1015.57 1016.21 1017.04 1017.64 1018.16 1018.69
1015.95 1016.25 1015.36 1015.00 1016.40 1016.75 1016.45 1015.97 1015.49 1015.12 1014.83 1014.68 1014.53 1014.14 1013.78 1014.02 1013.97 1013.65 1013.27 1012.73 1012.89 1013.05 1013.71 1014.79 1016.08 1017.71 1018.92 1018.87 1018.35 1017.98 1017.91 1018.29 1018.96 1019.51 1019.61 1019.22 1017.15 1015.98 1015.71 1015.75 1016.05 1016.69 1017.24 1017.74 1018.39
1016.36 1017.39 1017.07 1016.86 1017.09 1017.23 1017.07 1016.57 1015.99 1015.29 1015.04 1014.91 1015.03 1014.75 1014.62 1014.60 1014.31 1014.00 1013.55 1013.29 1013.09 1013.51 1013.88 1014.57 1015.71 1016.16 1016.66 1016.64 1017.17 1017.66 1017.57 1017.97 1018.34 1019.11 1018.65 1017.62 1016.52 1015.83 1015.71 1015.82 1016.11 1016.48 1016.78 1017.29 1017.80
1016.89 1017.95 1018.22 1018.14 1017.87 1017.79 1017.46 1016.92 1016.28 1015.69 1015.13 1014.95 1014.84 1014.74 1015.07 1014.95 1014.76 1014.46 1013.93 1013.53 1013.64 1013.81 1014.24 1014.63 1015.76 1016.59 1016.64 1016.37 1016.27 1016.10 1016.36 1016.89 1016.97 1017.21 1017.14 1016.41 1015.97 1014.94 1014.69 1014.80 1015.10 1015.64 1016.32 1016.89 1017.32
1017.17 1018.07 1018.34 1018.54 1018.44 1018.47 1018.02 1017.30 1016.64 1016.03 1015.55 1015.36 1015.17 1015.02 1014.99 1014.74 1014.64 1014.76 1014.52 1014.10 1014.18 1014.30 1014.52 1014.92 1015.89 1016.69 1017.44 1017.11 1016.87 1016.49 1015.98 1015.81 1016.01 1016.28 1016.06 1015.80 1015.25 1014.24 1013.85 1014.32 1014.82 1015.15 1015.92 1016.29 1016.58
1016.69 1017.08 1017.63 1018.46 1018.79 1018.90 1018.33 1017.06 1016.55 1016.04 1015.53 1014.94 1014.97 1014.91 1015.13 1014.17 1013.93 1014.35 1014.71 1014.72 1014.75 1014.33 1014.45 1015.13 1016.15 1017.51 1018.40 1018.07 1017.28 1016.79 1015.03 1015.25 1015.23 1014.88 1014.68 1014.35 1013.62 1013.54 1013.64 1013.84 1013.84 1014.37 1014.88 1015.26 1015.56
Wind_Speed
19 15 17 17 12 18 18 19 10 14 17 16 12 18 13 7 11 3 5 1 6 10 11 10 5 3 2 2 1 2 3 4 3 7 5 5 6 1 2 9 3 1 8 11 11
17 16 20 15 11 16 15 14 14 17 16 17 10 13 18 6 3 6 5 1 6 11 8 6 5 7 1 2 0 4 4 6 4 2 4 5 9 7 6 5 5 5 8 17 12
17 15 19 9 13 13 18 16 16 13 21 17 11 11 14 7 4 8 8 6 5 8 10 5 4 1 4 3 2 2 5 5 2 2 3 7 4 3 12 0 7 15 18 16 11
17 13 14 17 8 11 9 12 19 19 22 22 13 13 14 6 8 2 3 11 6 10 6 3 3 3 4 5 2 6 4 5 1 4 4 7 5 5 1 7 9 21 24 17 15
16 14 11 12 12 9 8 9 17 22 23 24 20 9 9 7 3 2 3 10 6 7 5 4 3 4 5 4 4 5 3 3 4 5 5 5 5 6 2 2 10 13 15 18 16
15 14 12 14 12 10 8 15 14 20 21 24 24 20 8 2 4 9 6 5 6 6 4 4 4 3 4 4 2 4 6 5 4 3 4 6 3 3 5 4 14 15 13 12 15
15 15 14 13 13 12 11 14 19 20 27 25 21 10 4 7 3 10 11 5 8 6 3 3 3 1 3 6 2 6 7 3 2 2 3 1 3 4 2 6 14 12 10 10 13
12 13 15 11 11 12 11 17 11 14 18 18 14 7 6 3 5 5 9 6 6 7 7 7 1 2 2 3 6 5 6 5 1 3 1 3 6 5 3 9 10 9 8 9 9
11 9 12 10 9 12 9 13 13 15 16 24 7 6 7 6 6 5 6 4 4 11 4 5 3 3 3 7 5 3 5 3 2 4 3 2 4 4 1 8 9 8 8 8 9
10 9 10 9 7 10 12 11 8 3 13 11 4 6 5 8 6 3 0 3 1 7 7 2 4 3 3 4 11 7 5 3 6 6 2 4 3 2 3 6 9 8 8 7 9
10 9 11 6 7 7 7 1 5 4 3 4 10 1 10 10 4 3 2 1 1 3 7 4 4 7 7 5 5 7 5 5 2 1 4 6 3 8 6 4 7 8 9 7 5
9 8 9 6 7 5 1 1 4 2 11 8 3 8 8 6 5 0 1 3 1 4 6 6 15 6 6 5 7 7 7 3 3 2 2 2 9 8 7 7 9 10 9 7 5
7 4 8 4 7 2 2 3 4 3 6 5 3 6 5 2 3 6 8 4 3 3 4 7 3 8 7 4 5 2 7 5 6 3 4 1 7 6 7 7 5 9 6 6 10
7 4 6 1 2 2 2 2 4 3 5 5 3 3 4 5 6 3 2 3 1 4 6 2 3 6 6 6 6 5 4 7 10 6 4 1 6 5 5 9 8 10 9 9 10
8 3 2 3 1 3 2 2 5 1 6 10 4 5 4 3 11 3 2 0 11 6 3 2 1 5 4 5 6 3 6 6 4 5 4 1 2 8 2 6 9 8 8 6 8
8 3 5 2 1 2 5 2 3 3 4 6 7 10 10 3 5 9 5 2 3 4 6 3 4 3 2 5 6 11 10 10 6 3 2 7 6 6 6 8 3 2 5 7 7
6 6 3 1 1 3 3 4 2 1 2 7 6 12 12 8 7 8 10 9 8 8 5 2 6 5 1 10 6 6 7 4 4 3 7 3 2 7 5 7 6 9 8 6 5
9 8 9 4 4 4 2 2 2 1 2 1 6 15 6 8 6 13 11 9 9 3 6 7 2 4 3 3 9 4 7 8 8 6 3 1 9 8 3 2 2 6 6 6 5
8 3 4 4 4 4 5 1 2 3 1 3 14 8 4 6 5 10 14 9 11 7 7 5 2 2 3 1 4 5 4 5 8 3 3 5 7 8 3 2 1 5 5 6 6
3 4 4 7 6 4 4 2 3 3 4 3 3 3 6 13 7 10 16 7 5 6 3 6 6 2 0 1 3 3 8 4 4 5 4 5 5 7 7 9 7 7 8 7 5
5 5 4 8 3 5 3 3 4 8 6 3 1 4 3 7 6 9 18 2 9 6 3 4 4 2 4 4 6 2 2 4 5 5 6 2 8 7 6 10 11 10 8 8 8
3 4 4 3 5 1 1 0 3 4 5 5 3 5 3 7 5 5 14 5 17 9 8 3 5 4 3 1 2 2 5 5 5 5 2 3 8 2 5 8 8 8 8 7 6
4 1 4 3 3 2 3 3 2 1 3 3 6 4 5 4 5 3 7 6 9 11 9 5 1 6 4 7 3 5 4 4 4 3 7 7 7 3 2 2 5 8 8 7 7
4 3 4 4 2 4 0 2 3 3 3 2 1 3 4 4 6 4 3 3 10 6 8 7 4 7 12 4 9 7 10 7 5 4 5 7 3 4 7 7 6 6 7 8 9
3 1 4 1 2 1 1 0 1 1 2 1 2 1 3 1 4 2 1 4 4 8 4 5 5 4 1 4 6 7 15 20 16 11 10 7 11 9 10 12 10 8 6 7 8
4 4 1 1 0 4 2 2 4 2 4 2 3 5 4 4 6 1 2 3 5 4 5 2 3 3 2 3 2 3 11 17 21 13 10 4 9 6 6 4 6 10 8 10 10
2 1 4 2 1 4 5 5 6 5 3 2 3 3 5 2 5 8 4 1 5 5 12 6 6 3 4 3 3 7 10 13 9 14 16 19 18 6 5 8 8 8 11 12 11
Wind_Direction
309 304 303 278 293 300 246 220 178 121 96 58 65 75 40 123 105 83 251 269 331 329 321 274 244 37 233 270 132 89 84 140 153 165 163 161 128 225 35 110 72 37 147 160 164
309 309 310 274 301 309 305 199 169 123 107 105 83 81 52 330 93 179 110 331 308 315 328 287 2 357 147 246 251 115 126 184 159 185 164 158 126 145 103 112 38 62 91 135 144
308 318 322 271 292 316 331 207 201 153 125 113 114 68 60 24 184 179 176 206 246 296 256 303 285 213 212 175 182 160 163 146 170 130 165 133 116 98 123 351 187 148 146 151 151
317 311 321 293 264 286 329 312 208 178 149 132 111 94 86 78 177 352 197 163 213 270 253 258 244 197 173 167 164 98 12 134 42 348 134 134 133 89 230 192 160 158 158 157 164
324 306 311 301 287 297 312 276 232 198 164 132 118 99 63 30 292 273 230 151 194 259 227 222 217 181 174 162 128 99 158 82 85 66 50 99 78 147 151 127 141 150 160 167 171
318 320 302 317 305 295 307 293 296 213 160 134 121 104 76 297 308 352 295 165 206 226 253 200 230 231 119 126 114 133 107 121 52 60 32 106 86 122 256 93 138 158 173 176 178
309 317 314 311 312 325 305 298 289 228 149 142 124 93 134 199 263 329 319 265 185 177 303 264 264 239 132 112 146 138 99 77 61 349 105 110 30 161 147 139 155 174 181 180 190
296 313 322 307 313 318 309 305 312 209 177 150 133 97 218 111 328 296 272 280 160 139 278 261 238 124 86 113 50 83 75 140 228 165 326 90 227 231 214 151 177 174 192 193 204
289 303 316 303 314 329 296 300 314 208 192 135 113 170 195 133 177 230 216 253 307 124 294 275 72 132 73 100 63 25 164 161 160 229 126 127 216 214 163 175 181 190 194 206 217
281 299 306 287 306 311 294 292 251 98 173 89 71 117 182 183 145 198 308 221 331 121 119 314 44 123 73 116 181 169 161 175 165 211 152 159 236 230 214 166 201 203 212 215 218
260 282 291 273 285 304 296 132 122 115 30 160 154 25 139 103 113 152 310 107 177 105 139 222 187 192 178 171 152 143 132 126 34 323 133 194 218 233 250 254 221 229 230 219 217
237 268 288 272 292 316 178 268 315 116 71 32 127 88 99 120 131 47 182 70 99 145 126 105 223 196 168 160 130 136 125 99 41 7 107 150 258 244 238 237 215 214 229 202 155
214 242 291 302 315 304 184 238 322 295 76 34 4 88 110 52 92 141 127 128 34 153 147 163 203 139 142 164 136 114 136 169 152 130 33 51 298 255 253 236 218 227 217 184 176
179 222 286 337 21 113 280 206 334 326 101 142 235 139 119 133 55 102 139 101 29 161 138 186 347 150 153 180 135 154 156 139 133 120 191 168 265 283 242 248 219 228 207 192 176
155 207 239 170 229 217 177 123 319 267 145 165 146 152 127 55 141 178 128 100 144 174 79 161 20 153 150 181 144 167 121 115 95 94 108 227 79 266 266 252 245 234 217 161 185
142 181 114 340 262 59 77 48 31 91 147 159 136 157 139 214 173 136 157 97 55 71 44 352 303 335 128 59 133 145 88 51 51 56 317 197 163 262 199 218 237 174 142 151 154
135 136 67 138 130 80 58 24 64 171 342 143 152 152 152 154 128 152 177 162 149 136 140 14 321 311 277 87 1 120 99 26 357 1 229 14 206 252 244 245 215 186 168 167 151
118 88 40 62 58 5 82 31 108 224 129 263 138 150 159 133 154 162 174 163 230 108 124 151 200 202 325 137 168 160 149 152 184 195 222 38 232 245 271 317 87 130 142 150 154
102 12 39 5 37 11 29 67 348 29 73 169 133 151 136 153 131 161 190 185 187 185 135 147 136 92 27 356 153 204 148 139 104 22 60 216 285 299 167 191 144 156 160 183 174
82 65 16 348 348 58 58 45 336 335 352 337 135 207 157 161 151 163 183 221 189 194 178 202 104 68 16 154 0 159 155 83 0 134 243 265 279 241 219 211 216 215 216 208 194
55 58 327 335 36 46 89 317 332 39 32 29 91 125 141 143 153 164 170 161 198 172 135 149 103 178 122 207 171 116 161 89 120 151 175 169 257 218 216 193 205 219 209 199 200
76 54 316 357 55 44 57 116 291 340 57 34 84 43 133 146 143 152 185 175 200 145 155 177 105 121 173 250 234 185 193 150 151 214 218 152 276 286 262 201 182 208 208 201 189
77 115 335 41 109 343 317 324 302 246 34 18 18 28 17 57 143 166 176 207 156 165 154 187 155 110 33 343 291 201 183 154 127 82 196 147 249 337 348 146 194 188 202 199 186
82 66 335 45 174 127 176 325 350 19 74 12 127 25 51 41 17 183 159 114 186 155 144 112 157 173 193 181 150 193 198 197 164 161 152 222 246 250 237 225 216 209 199 193 190
47 264 187 152 286 182 251 223 136 336 24 35 45 164 168 2 9 54 112 111 69 143 126 140 157 170 222 223 164 172 191 202 208 200 195 201 202 234 213 212 205 200 195 193 198
126 133 25 167 289 126 197 272 199 197 160 234 171 217 195 190 151 261 277 125 178 212 152 172 178 119 350 53 101 238 215 209 213 217 245 282 252 242 257 225 170 209 191 204 199
91 48 111 232 71 101 215 222 203 170 250 231 213 143 247 197 143 126 126 100 341 210 193 149 128 88 240 351 72 301 210 201 209 210 205 225 227 230 238 229 225 203 202 208 204